Date,TemperatureHighF,TemperatureAvgF,TemperatureLowF,DewpointHighF,DewpointAvgF,DewpointLowF,HumidityHigh,HumidityAvg,HumidityLow,PressureMaxIn,PressureMinIn,WindSpeedMaxMPH,WindSpeedAvgMPH,GustSpeedMaxMPH,PrecipitationSumIn
2013-3-1,45.7,36.8,29.7,38.6,27.8,22.5,91,72,46,29.65,29.48,3,0,6,0.02
2013-3-2,39.1,34.1,29.3,24.9,22.1,20.4,82,62,51,29.65,29.56,3,1,6,0.00
2013-3-3,41.6,31.4,27.2,23.2,17.4,14.3,77,57,36,29.62,29.50,3,1,6,0.00
2013-3-4,40.8,31.6,25.8,19.9,13.8,-99.9,68,54,40,29.76,29.60,3,2,11,0.00
2013-3-5,47.6,36.3,27.8,25.6,21.9,17.6,70,57,38,29.89,29.76,2,1,7,0.00
2013-3-6,40.8,38.0,34.1,35.0,28.0,24.2,82,67,59,29.86,29.75,5,2,8,0.01
2013-3-7,37.0,33.9,30.9,30.1,27.3,23.3,92,77,61,29.96,29.81,5,2,8,0.03
2013-3-8,39.3,37.2,30.6,28.6,26.0,22.2,91,65,53,30.08,29.92,3,2,10,0.20
2013-3-9,55.0,40.5,31.8,25.6,21.1,17.3,70,48,26,30.19,30.07,3,1,8,0.16
2013-3-10,50.8,37.5,26.3,33.5,28.6,21.7,90,72,46,30.27,30.15,3,1,8,0.00
2013-3-11,52.8,44.0,35.6,45.5,37.7,30.9,87,79,61,30.19,29.96,4,1,7,0.00
2013-3-12,54.4,49.8,40.2,51.3,45.7,34.5,91,86,74,29.97,29.54,7,3,13,0.94
2013-3-13,49.4,44.2,36.5,35.0,25.8,17.4,86,51,30,29.72,29.64,2,1,7,0.00
2013-3-16,35.9,32.3,30.7,27.2,22.4,15.6,86,69,44,29.78,29.66,2,0,4,0.01
2013-3-17,37.5,33.2,28.2,16.7,11.6,7.1,54,41,28,30.19,29.98,3,1,4,0.00
2013-3-18,34.3,28.3,21.3,28.6,13.3,3.6,91,56,34,30.30,29.93,2,0,5,0.00
2013-3-19,42.1,34.4,31.2,34.8,30.6,24.7,90,86,69,29.92,29.56,1,0,3,0.47
2013-3-20,42.6,34.9,27.5,24.7,17.6,12.9,71,51,30,29.75,29.64,5,1,6,0.10
2013-3-21,39.2,32.7,29.5,24.6,16.1,8.2,78,52,28,29.71,29.48,3,0,6,0.02
2013-3-22,40.3,32.7,25.0,20.8,15.8,9.0,71,50,35,29.74,29.60,3,1,7,0.01
2013-3-23,45.5,36.6,30.1,21.2,17.7,13.6,63,47,30,29.79,29.65,3,1,10,0.01
2013-3-24,47.7,36.4,26.0,23.4,19.4,14.5,74,52,31,29.82,29.57,3,0,5,0.00
2013-3-25,42.9,38.2,33.4,33.9,25.4,20.8,78,60,42,29.59,29.33,4,0,5,0.00
2013-3-26,50.1,40.1,31.5,35.0,25.0,19.6,80,57,34,29.73,29.46,3,0,5,0.00
2013-3-28,44.5,41.6,38.0,29.6,27.8,24.7,67,58,54,29.97,29.92,1,0,2,0.00
2013-3-29,54.8,43.2,33.8,31.2,26.2,21.5,73,53,30,30.01,29.91,3,1,7,0.00
2013-3-30,58.1,43.2,30.3,44.2,23.2,9.1,84,51,20,30.04,29.91,3,0,7,0.00
2013-3-31,53.8,43.5,31.5,44.6,31.2,9.0,90,64,31,30.00,29.55,6,1,12,0.09